Time,TemperatureF,DewpointF,PressureIn,WindDirection,WindDirectionDegrees,WindSpeedMPH,WindSpeedGustMPH,Humidity,HourlyPrecipIn,Conditions,Clouds,dailyrainin,SoftwareType,DateUTC
2013-09-20 00:05:00,68.0,67.0,29.87,WNW,298,0.0,2.0,95,0.05,,,0.11,weatherlink.com 1.10,2013-09-20 05:05:00,
2013-09-20 00:20:00,67.8,66.0,29.85,WNW,298,1.0,2.0,95,0.02,,,0.12,weatherlink.com 1.10,2013-09-20 05:20:00,
2013-09-20 00:35:00,68.1,67.0,29.88,SSW,211,3.0,7.0,95,0.06,,,0.03,weatherlink.com 1.10,2013-09-20 05:35:00,
2013-09-20 00:50:00,67.6,66.0,29.87,SSE,148,2.0,7.0,95,0.18,,,0.15,weatherlink.com 1.10,2013-09-20 05:50:00,
2013-09-20 01:05:00,66.9,66.0,29.86,SSE,162,6.0,9.0,95,0.26,,,0.23,weatherlink.com 1.10,2013-09-20 06:05:00,
2013-09-20 01:20:00,66.8,65.0,29.86,SSW,197,3.0,7.0,95,0.30,,,0.28,weatherlink.com 1.10,2013-09-20 06:20:00,
2013-09-20 01:35:00,66.6,66.0,29.86,South,183,3.0,7.0,96,0.31,,,0.34,weatherlink.com 1.10,2013-09-20 06:35:00,
2013-09-20 01:50:00,66.5,65.0,29.87,South,185,5.0,6.0,96,0.22,,,0.39,weatherlink.com 1.10,2013-09-20 06:50:00,
2013-09-20 02:05:00,66.3,65.0,29.87,South,191,4.0,7.0,96,0.18,,,0.41,weatherlink.com 1.10,2013-09-20 07:05:00,
2013-09-20 02:20:00,66.3,65.0,29.86,SW,217,0.0,4.0,96,0.14,,,0.43,weatherlink.com 1.10,2013-09-20 07:20:00,
2013-09-20 02:35:00,66.3,65.0,29.84,South,177,0.0,4.0,96,0.11,,,0.45,weatherlink.com 1.10,2013-09-20 07:35:00,
2013-09-20 02:50:00,66.2,65.0,29.84,South,190,0.0,3.0,96,0.06,,,0.45,weatherlink.com 1.10,2013-09-20 07:50:00,
2013-09-20 03:05:00,66.2,65.0,29.83,South,191,4.0,4.0,97,0.05,,,0.46,weatherlink.com 1.10,2013-09-20 08:05:00,
2013-09-20 03:20:00,66.2,65.0,29.83,WSW,240,0.0,4.0,97,0.03,,,0.46,weatherlink.com 1.10,2013-09-20 08:20:00,
2013-09-20 03:35:00,66.1,65.0,29.84,South,182,1.0,6.0,97,0.01,,,0.46,weatherlink.com 1.10,2013-09-20 08:35:00,
2013-09-20 03:50:00,66.1,65.0,29.85,South,190,2.0,5.0,97,0.01,,,0.46,weatherlink.com 1.10,2013-09-20 08:50:00,
2013-09-20 04:05:00,66.3,66.0,29.86,WSW,241,2.0,7.0,97,0.00,,,0.46,weatherlink.com 1.10,2013-09-20 09:05:00,
2013-09-20 04:20:00,66.4,66.0,29.86,SSW,209,2.0,8.0,97,0.00,,,0.46,weatherlink.com 1.10,2013-09-20 09:20:00,
2013-09-20 04:35:00,66.4,66.0,29.86,SW,226,7.0,7.0,97,0.00,,,0.46,weatherlink.com 1.10,2013-09-20 09:35:00,
2013-09-20 04:50:00,66.5,66.0,29.87,SSW,205,0.0,6.0,97,0.00,,,0.46,weatherlink.com 1.10,2013-09-20 09:50:00,
2013-09-20 05:05:00,66.6,66.0,29.88,WSW,240,1.0,5.0,97,0.00,,,0.46,weatherlink.com 1.10,2013-09-20 10:05:00,
2013-09-20 05:20:00,66.6,66.0,29.87,SW,232,1.0,5.0,97,0.00,,,0.46,weatherlink.com 1.10,2013-09-20 10:20:00,
2013-09-20 05:35:00,66.4,66.0,29.86,SW,226,1.0,4.0,97,0.00,,,0.46,weatherlink.com 1.10,2013-09-20 10:35:00,
2013-09-20 05:50:00,66.2,65.0,29.86,WSW,248,1.0,6.0,97,0.00,,,0.46,weatherlink.com 1.10,2013-09-20 10:50:00,
2013-09-20 06:05:00,66.2,65.0,29.86,West,263,0.0,4.0,97,0.00,,,0.46,weatherlink.com 1.10,2013-09-20 11:05:00,
2013-09-20 06:20:00,66.1,65.0,29.86,West,263,1.0,2.0,97,0.00,,,0.46,weatherlink.com 1.10,2013-09-20 11:20:00,
2013-09-20 06:35:00,66.1,66.0,29.87,WSW,256,0.0,4.0,98,0.00,,,0.46,weatherlink.com 1.10,2013-09-20 11:35:00,
2013-09-20 06:50:00,66.1,66.0,29.86,WSW,251,0.0,2.0,98,0.00,,,0.46,weatherlink.com 1.10,2013-09-20 11:50:00,
2013-09-20 07:05:00,66.0,66.0,29.87,SW,223,0.0,4.0,98,0.00,,,0.46,weatherlink.com 1.10,2013-09-20 12:05:00,
2013-09-20 07:20:00,66.0,66.0,29.87,SW,236,0.0,4.0,98,0.00,,,0.46,weatherlink.com 1.10,2013-09-20 12:20:00,
2013-09-20 07:35:00,66.2,66.0,29.87,WSW,242,0.0,4.0,98,0.00,,,0.46,weatherlink.com 1.10,2013-09-20 12:35:00,
2013-09-20 07:50:00,66.4,66.0,29.87,WSW,251,0.0,5.0,98,0.00,,,0.46,weatherlink.com 1.10,2013-09-20 12:50:00,
2013-09-20 08:05:00,66.5,66.0,29.88,West,260,1.0,4.0,98,0.00,,,0.46,weatherlink.com 1.10,2013-09-20 13:05:00,
2013-09-20 08:20:00,65.9,65.0,29.88,West,263,4.0,15.0,97,0.00,,,0.46,weatherlink.com 1.10,2013-09-20 13:20:00,
2013-09-20 08:35:00,65.2,65.0,29.88,WNW,293,6.0,8.0,98,0.00,,,0.46,weatherlink.com 1.10,2013-09-20 13:35:00,
2013-09-20 08:50:00,65.1,64.0,29.89,North,360,1.0,11.0,97,0.00,,,0.46,weatherlink.com 1.10,2013-09-20 13:50:00,
2013-09-20 09:05:00,63.8,63.0,29.89,WNW,293,3.0,10.0,97,0.00,,,0.46,weatherlink.com 1.10,2013-09-20 14:05:00,
2013-09-20 09:20:00,63.4,63.0,29.90,NW,311,1.0,7.0,97,0.00,,,0.46,weatherlink.com 1.10,2013-09-20 14:20:00,
2013-09-20 09:35:00,63.4,63.0,29.90,WNW,290,5.0,12.0,97,0.00,,,0.46,weatherlink.com 1.10,2013-09-20 14:35:00,
2013-09-20 09:51:00,63.4,63.0,29.90,NW,313,0.0,9.0,97,0.00,,,0.46,weatherlink.com 1.10,2013-09-20 14:51:00,
2013-09-20 10:06:00,63.2,62.0,29.90,NW,325,8.0,12.0,97,0.00,,,0.46,weatherlink.com 1.10,2013-09-20 15:06:00,
2013-09-20 10:21:00,63.6,63.0,29.90,NNW,348,0.0,11.0,96,0.00,,,0.46,weatherlink.com 1.10,2013-09-20 15:21:00,
2013-09-20 10:36:00,64.0,62.0,29.91,NW,319,3.0,9.0,93,0.00,,,0.46,weatherlink.com 1.10,2013-09-20 15:36:00,
2013-09-20 10:51:00,64.6,62.0,29.92,NW,320,4.0,9.0,90,0.00,,,0.46,weatherlink.com 1.10,2013-09-20 15:51:00,
2013-09-20 11:06:00,65.8,63.0,29.93,NW,313,3.0,12.0,89,0.00,,,0.46,weatherlink.com 1.10,2013-09-20 16:06:00,
2013-09-20 11:21:00,66.5,62.0,29.93,NW,315,7.0,10.0,86,0.00,,,0.46,weatherlink.com 1.10,2013-09-20 16:21:00,
2013-09-20 11:36:00,67.6,63.0,29.92,North,350,7.0,7.0,85,0.00,,,0.46,weatherlink.com 1.10,2013-09-20 16:36:00,
2013-09-20 11:51:00,68.5,63.0,29.92,NNW,344,2.0,10.0,81,0.00,,,0.46,weatherlink.com 1.10,2013-09-20 16:51:00,
2013-09-20 12:06:00,68.3,62.0,29.92,North,355,3.0,11.0,79,0.00,,,0.46,weatherlink.com 1.10,2013-09-20 17:06:00,
2013-09-20 12:21:00,68.3,61.0,29.92,WNW,303,2.0,10.0,78,0.00,,,0.46,weatherlink.com 1.10,2013-09-20 17:21:00,
2013-09-20 12:36:00,68.9,61.0,29.92,NNW,329,4.0,9.0,76,0.00,,,0.46,weatherlink.com 1.10,2013-09-20 17:36:00,
2013-09-20 12:51:00,69.3,60.0,29.92,NW,318,5.0,12.0,73,0.00,,,0.46,weatherlink.com 1.10,2013-09-20 17:51:00,
2013-09-20 13:06:00,68.9,59.0,29.92,NNW,334,3.0,9.0,70,0.00,,,0.46,weatherlink.com 1.10,2013-09-20 18:06:00,
2013-09-20 13:21:00,68.8,60.0,29.92,NNW,328,3.0,11.0,73,0.00,,,0.46,weatherlink.com 1.10,2013-09-20 18:21:00,
2013-09-20 13:36:00,69.1,59.0,29.91,North,355,0.0,9.0,70,0.00,,,0.46,weatherlink.com 1.10,2013-09-20 18:36:00,
2013-09-20 13:51:00,69.8,60.0,29.91,NNW,328,4.0,9.0,70,0.00,,,0.46,weatherlink.com 1.10,2013-09-20 18:51:00,
2013-09-20 14:06:00,69.9,60.0,29.90,NW,304,3.0,7.0,71,0.00,,,0.46,weatherlink.com 1.10,2013-09-20 19:06:00,
2013-09-20 14:36:00,69.6,60.0,29.89,NW,309,4.0,9.0,72,0.00,,,0.46,weatherlink.com 1.10,2013-09-20 19:36:00,
2013-09-20 14:51:00,69.5,60.0,29.89,NNW,331,1.0,8.0,71,0.00,,,0.46,weatherlink.com 1.10,2013-09-20 19:51:00,
2013-09-20 15:06:00,69.7,60.0,29.89,NNW,340,1.0,7.0,70,0.00,,,0.46,weatherlink.com 1.10,2013-09-20 20:06:00,
2013-09-20 15:21:00,70.0,58.0,29.89,WNW,296,0.0,5.0,67,0.00,,,0.46,weatherlink.com 1.10,2013-09-20 20:21:00,
2013-09-20 15:36:00,71.0,60.0,29.88,WNW,297,1.0,8.0,68,0.00,,,0.46,weatherlink.com 1.10,2013-09-20 20:36:00,
2013-09-20 15:51:00,71.4,59.0,29.88,NW,304,0.0,7.0,64,0.00,,,0.46,weatherlink.com 1.10,2013-09-20 20:51:00,
2013-09-20 16:06:00,71.3,57.0,29.87,WNW,286,1.0,5.0,61,0.00,,,0.46,weatherlink.com 1.10,2013-09-20 21:06:00,
2013-09-20 16:21:00,70.5,56.0,29.87,NNW,333,4.0,10.0,61,0.00,,,0.46,weatherlink.com 1.10,2013-09-20 21:21:00,
2013-09-20 16:36:00,70.3,58.0,29.87,WNW,293,1.0,7.0,65,0.00,,,0.46,weatherlink.com 1.10,2013-09-20 21:36:00,
2013-09-20 16:51:00,70.0,57.0,29.87,WNW,296,3.0,8.0,64,0.00,,,0.46,weatherlink.com 1.10,2013-09-20 21:51:00,
2013-09-20 17:06:00,69.9,56.0,29.88,NNW,327,3.0,8.0,62,0.00,,,0.46,weatherlink.com 1.10,2013-09-20 22:06:00,
2013-09-20 17:21:00,69.2,56.0,29.87,NNW,335,6.0,9.0,63,0.00,,,0.46,weatherlink.com 1.10,2013-09-20 22:21:00,
2013-09-20 17:36:00,68.8,56.0,29.87,NW,319,3.0,8.0,63,0.00,,,0.46,weatherlink.com 1.10,2013-09-20 22:36:00,
2013-09-20 17:51:00,68.5,55.0,29.87,WNW,299,2.0,8.0,63,0.00,,,0.46,weatherlink.com 1.10,2013-09-20 22:51:00,
2013-09-20 18:06:00,67.7,55.0,29.87,NW,323,0.0,7.0,64,0.00,,,0.46,weatherlink.com 1.10,2013-09-20 23:06:00,
2013-09-20 18:21:00,67.0,56.0,29.88,NW,321,3.0,7.0,68,0.00,,,0.46,weatherlink.com 1.10,2013-09-20 23:21:00,
2013-09-20 18:36:00,66.3,55.0,29.88,NNW,339,2.0,6.0,68,0.00,,,0.46,weatherlink.com 1.10,2013-09-20 23:36:00,
2013-09-20 18:51:00,65.3,55.0,29.88,WNW,296,2.0,5.0,70,0.00,,,0.46,weatherlink.com 1.10,2013-09-20 23:51:00,
2013-09-20 19:06:00,64.3,55.0,29.88,NW,310,1.0,6.0,72,0.00,,,0.46,weatherlink.com 1.10,2013-09-21 00:06:00,
2013-09-20 19:21:00,63.4,54.0,29.88,NW,311,2.0,10.0,72,0.00,,,0.46,weatherlink.com 1.10,2013-09-21 00:21:00,
2013-09-20 19:37:00,62.5,54.0,29.88,NW,309,2.0,5.0,74,0.00,,,0.46,weatherlink.com 1.10,2013-09-21 00:37:00,
2013-09-20 19:52:00,61.6,54.0,29.89,NW,325,0.0,3.0,77,0.00,,,0.46,weatherlink.com 1.10,2013-09-21 00:52:00,
2013-09-20 20:07:00,60.6,54.0,29.89,NW,306,3.0,7.0,78,0.00,,,0.46,weatherlink.com 1.10,2013-09-21 01:07:00,
2013-09-20 20:22:00,59.8,53.0,29.90,WNW,289,0.0,5.0,79,0.00,,,0.46,weatherlink.com 1.10,2013-09-21 01:22:00,
2013-09-20 20:37:00,59.2,53.0,29.91,WNW,301,0.0,4.0,80,0.00,,,0.46,weatherlink.com 1.10,2013-09-21 01:37:00,
2013-09-20 20:52:00,58.7,53.0,29.91,WNW,301,0.0,2.0,80,0.00,,,0.46,weatherlink.com 1.10,2013-09-21 01:52:00,
2013-09-20 21:07:00,58.8,53.0,29.91,WNW,293,0.0,2.0,80,0.00,,,0.46,weatherlink.com 1.10,2013-09-21 02:07:00,
2013-09-20 21:22:00,58.7,53.0,29.91,WNW,293,0.0,3.0,80,0.00,,,0.46,weatherlink.com 1.10,2013-09-21 02:22:00,
2013-09-20 21:37:00,58.3,53.0,29.92,WNW,290,0.0,2.0,81,0.00,,,0.46,weatherlink.com 1.10,2013-09-21 02:37:00,
2013-09-20 21:52:00,58.0,53.0,29.92,WNW,284,1.0,4.0,82,0.00,,,0.46,weatherlink.com 1.10,2013-09-21 02:52:00,
2013-09-20 22:07:00,57.6,52.0,29.92,WNW,285,0.0,3.0,82,0.00,,,0.46,weatherlink.com 1.10,2013-09-21 03:07:00,
2013-09-20 22:22:00,57.4,52.0,29.92,WNW,285,0.0,3.0,83,0.00,,,0.46,weatherlink.com 1.10,2013-09-21 03:22:00,
2013-09-20 22:37:00,57.2,52.0,29.92,WNW,285,0.0,2.0,83,0.00,,,0.46,weatherlink.com 1.10,2013-09-21 03:37:00,
2013-09-20 22:52:00,57.0,52.0,29.92,WNW,285,0.0,1.0,84,0.00,,,0.46,weatherlink.com 1.10,2013-09-21 03:52:00,
2013-09-20 23:07:00,56.6,52.0,29.92,WNW,285,0.0,3.0,84,0.00,,,0.46,weatherlink.com 1.10,2013-09-21 04:07:00,
2013-09-20 23:22:00,56.4,52.0,29.92,WNW,285,1.0,2.0,85,0.00,,,0.46,weatherlink.com 1.10,2013-09-21 04:22:00,
2013-09-20 23:37:00,56.1,52.0,29.92,WNW,285,0.0,1.0,85,0.00,,,0.46,weatherlink.com 1.10,2013-09-21 04:37:00,
2013-09-20 23:52:00,55.7,52.0,29.92,WNW,285,0.0,2.0,86,0.00,,,0.46,weatherlink.com 1.10,2013-09-21 04:52:00,